Location: Newark
(46.7000°N, 60.6000°W)
Time: 07:39:41
(UTC+00:00)

Envisat - Visible Passes

Search period start: 21 September 2020 00:00
Search period end: 01 October 2020 00:00
Orbit: 764 x 766 km, 98.1° (Epoch: 21 September)

Date Brightness Start Highest point End Pass type
(mag) Time Alt. Az. Time Alt. Az. Time Alt. Az.
22 Sep 6.3 08:44:25 10° ENE 08:46:47 13° E 08:49:07 10° ESE visible
23 Sep 6.3 22:43:53 10° WSW 22:46:36 14° W 22:49:20 10° NW visible
24 Sep 5.9 09:08:35 10° NE 09:12:32 22° E 09:16:28 10° SE visible
25 Sep 6.7 08:34:46 10° E 08:35:15 10° E 08:35:44 10° E visible
26 Sep 6.1 22:31:40 10° SW 22:35:05 18° W 22:38:33 10° NW visible
27 Sep 6.1 08:57:37 10° NE 09:01:03 18° E 09:04:28 10° SE visible
28 Sep 6.8 23:00:16 10° W 23:00:54 10° W 23:01:32 10° WNW visible
29 Sep 5.3 09:22:18 10° NNE 09:26:45 30° E 09:31:10 10° SSE visible
29 Sep 5.9 22:19:41 10° SW 22:23:37 22° W 22:27:34 10° NW visible
30 Sep 6.3 08:46:51 10° NE 08:49:33 14° E 08:52:15 10° ESE visible
